Weather History for St. Kitts, Saint Kitts and Nevis

Change the Weather History Date:

Saturday, March 2, 2013

  Actual Average Record
Temperature  
Mean Temperature 74 °F -  
Max Temperature 84 °F 81 °F 86 °F (1998)
Min Temperature 65 °F 73 °F 65 °F (2013)
Cooling Degree Days 10    
Growing Degree Days 24 (Base 50)    
Moisture  
Dew Point 67 °F    
Average Humidity 67    
Maximum Humidity 83    
Minimum Humidity 49    
Precipitation  
Precipitation 0.00 in - - ()
Sea Level Pressure  
Sea Level Pressure 29.95 in    
Wind  
Wind Speed 5 mph ()    
Max Wind Speed 12 mph    
Max Gust Speed -    
Visibility 6.8 miles    
Events      
Averages and records for this station are not official NWS values.
T = Trace of Precipitation, MM = Missing Value Source: Averaged Metar Reports

Daily Weather History Graph

Daily Weather History Graph

Search for Another Location

Airport:

Trip Planner

Search our weather history database for the weather conditions in past years. The results will help you decide how hot, cold, wet, or windy it might be!

Date:

Astronomy

Mar. 02, 2013 Rise Set
Actual Time 6:28 AM AST 6:17 PM AST
Civil Twilight 6:06 AM AST 6:39 PM AST
Nautical Twilight 5:41 AM AST 7:04 PM AST
Astronomical Twilight 5:16 AM AST 7:29 PM AST
Moon 10:57 PM AST (3/2) 9:43 AM AST (3/2)
Length of Visible Light 12h 33m
Length of Day
11h 49m
Waning Gibbous, 74% of the Moon is Illuminated
Mar 2
Waning Gibbous
Mar 4
Last Quarter
Mar 11
New
Mar 19
First Quarter
Mar 27
Full

Hourly Weather History & Observations

Time (AST) Temp. Heat Index Dew Point Humidity Pressure Visibility Wind Dir Wind Speed Gust Speed Precip Events Conditions
6:00 AM 71.6 °F - 66.2 °F 83% 29.92 in 6.2 mi Variable 2.3 mph - N/A   Partly Cloudy
7:00 AM 73.4 °F - 66.2 °F 78% 29.92 in 6.2 mi Variable 2.3 mph - N/A   Partly Cloudy
8:00 AM 77 °F - 65 °F 59% 29.96 in 22 mi North 8.1 mph - -   Partly Cloudy
8:00 AM 77.0 °F - 66.2 °F 69% 29.95 in 6.2 mi East 8.1 mph - N/A   Partly Cloudy
9:00 AM 78.8 °F - 68.0 °F 69% 29.98 in 6.2 mi East 8.1 mph - N/A   Partly Cloudy
10:00 AM 80.6 °F 82.7 °F 66.2 °F 61% 29.98 in 6.2 mi East 8.1 mph - N/A   Partly Cloudy
11:00 AM 83 °F - 67 °F 49% 30.00 in 22 mi NNE 6.9 mph - -   Scattered Clouds
11:00 AM 84.2 °F 86.6 °F 66.2 °F 55% 29.98 in 6.2 mi NNE 6.9 mph - N/A   Partly Cloudy
12:00 PM 82.4 °F 84.6 °F 66.2 °F 58% 29.98 in 6.2 mi East 10.4 mph - N/A   Partly Cloudy
1:00 PM 80.6 °F 82.7 °F 66.2 °F 61% 29.95 in 6.2 mi ESE 11.5 mph - N/A   Mostly Cloudy
2:00 PM 83 °F - 67 °F 50% 29.95 in 22 mi SSW 6.9 mph - -   Scattered Clouds
2:00 PM 82.4 °F 85.4 °F 68.0 °F 62% 29.95 in 6.2 mi SSW 6.9 mph - N/A   Partly Cloudy
3:00 PM 80.6 °F 83.2 °F 68.0 °F 65% 29.92 in 6.2 mi South 6.9 mph - N/A   Partly Cloudy
4:00 PM 80.6 °F 83.2 °F 68.0 °F 65% 29.92 in 6.2 mi SSW 9.2 mph - N/A   Partly Cloudy
5:00 PM 79 °F - 68 °F 62% 29.93 in 22 mi SSW 5.8 mph - -   Scattered Clouds
5:00 PM 78.8 °F - 68.0 °F 69% 29.92 in 6.2 mi SSW 5.8 mph - N/A   Partly Cloudy
6:00 PM 77.0 °F - 66.2 °F 69% 29.92 in 6.2 mi South 4.6 mph - N/A   Partly Cloudy
7:00 PM 75.2 °F - 68.0 °F 78% 29.92 in 6.2 mi Calm Calm - N/A   Partly Cloudy
8:00 PM 72 °F - 65 °F 74% 29.96 in 17 mi Calm Calm - -   Scattered Clouds
8:00 PM 71.6 °F - 66.2 °F 83% 29.95 in 6.2 mi Calm Calm - N/A   Partly Cloudy
9:00 PM 71.6 °F - 66.2 °F 83% 29.98 in 6.2 mi Calm Calm - N/A   Partly Cloudy